GXA6225 KPHX-KLAX

Flight info

Callsign GXA6225
Flight time 1h 0m
Altitude 36000
Route KEENS3 WLVRN ESTWD HLYWD1
Aircraft A321/M-SDE3FGHIRWY/LB1

Departure

Time 2026-04-25 04:48
Airport Phoenix Sky Harbor International Airport (KPHX)

Arrival

Time 2026-04-25 05:49
Airport Los Angeles International Airport (KLAX)
Time Latitude Longitude Altitude Speed Heading
2026-04-25 03:44 33.43426 -112.02520 1124 ft 0 kts
2026-04-25 04:36 33.43410 -112.02520 1113 ft 4 kts
2026-04-25 04:36 33.43386 -112.02520 1116 ft 4 kts
2026-04-25 04:37 33.43363 -112.02527 1115 ft 4 kts 54°
2026-04-25 04:37 33.43356 -112.02555 1115 ft 3 kts 90°
2026-04-25 04:37 33.43356 -112.02565 1116 ft 0 kts 90°
2026-04-25 04:40 33.43356 -112.02558 1124 ft 2 kts 90°
2026-04-25 04:40 33.43350 -112.02534 1118 ft 4 kts 125°
2026-04-25 04:41 33.43323 -112.02522 1122 ft 5 kts 168°
2026-04-25 04:41 33.43293 -112.02497 1125 ft 6 kts 118°
2026-04-25 04:41 33.43289 -112.02440 1117 ft 9 kts 92°
2026-04-25 04:41 33.43287 -112.02357 1118 ft 11 kts 90°
2026-04-25 04:42 33.43288 -112.02255 1125 ft 13 kts 89°
2026-04-25 04:42 33.43289 -112.02139 1117 ft 14 kts 90°
2026-04-25 04:42 33.43289 -112.02017 1117 ft 15 kts 89°
2026-04-25 04:42 33.43289 -112.01883 1117 ft 16 kts 90°
2026-04-25 04:43 33.43289 -112.01744 1117 ft 17 kts 90°
2026-04-25 04:43 33.43289 -112.01599 1120 ft 18 kts 89°
2026-04-25 04:43 33.43289 -112.01448 1117 ft 18 kts 90°
2026-04-25 04:43 33.43288 -112.01293 1117 ft 19 kts 90°
2026-04-25 04:44 33.43289 -112.01132 1121 ft 19 kts 90°
2026-04-25 04:44 33.43288 -112.00969 1119 ft 20 kts 90°
2026-04-25 04:44 33.43288 -112.00801 1121 ft 20 kts 90°
2026-04-25 04:44 33.43288 -112.00630 1121 ft 21 kts 90°
2026-04-25 04:45 33.43285 -112.00455 1122 ft 21 kts 94°
2026-04-25 04:45 33.43283 -112.00277 1120 ft 22 kts 90°
2026-04-25 04:45 33.43283 -112.00095 1125 ft 22 kts 90°
2026-04-25 04:45 33.43283 -111.99907 1119 ft 23 kts 90°
2026-04-25 04:46 33.43284 -111.99723 1119 ft 21 kts 90°
2026-04-25 04:46 33.43283 -111.99551 1119 ft 20 kts 90°
2026-04-25 04:46 33.43283 -111.99402 1125 ft 15 kts 91°
2026-04-25 04:46 33.43216 -111.99346 1127 ft 13 kts 182°
2026-04-25 04:47 33.43140 -111.99346 1134 ft 9 kts 178°
2026-04-25 04:47 33.43105 -111.99407 1136 ft 12 kts 270°
2026-04-25 04:47 33.43107 -111.99553 1132 ft 37 kts 270°
2026-04-25 04:47 33.43103 -112.00150 1132 ft 104 kts 270°
2026-04-25 04:48 33.43102 -112.01268 1120 ft 158 kts 270°
2026-04-25 04:48 33.43101 -112.02666 1545 ft 170 kts 267°
2026-04-25 04:48 33.43044 -112.04083 2189 ft 172 kts 264°
2026-04-25 04:48 33.42968 -112.05515 2834 ft 173 kts 265°
2026-04-25 04:49 33.42885 -112.07025 3042 ft 194 kts 265°
2026-04-25 04:49 33.42545 -112.08663 3206 ft 214 kts 248°
2026-04-25 04:49 33.41960 -112.10421 3247 ft 242 kts 249°
2026-04-25 04:49 33.41336 -112.12345 3737 ft 252 kts 249°
2026-04-25 04:50 33.40701 -112.14323 4360 ft 256 kts 248°
2026-04-25 04:50 33.40066 -112.16318 5053 ft 258 kts 249°
2026-04-25 04:50 33.39429 -112.18343 5696 ft 262 kts 250°
2026-04-25 04:50 33.39133 -112.20495 6280 ft 267 kts 273°
2026-04-25 04:51 33.39434 -112.22701 6919 ft 270 kts 278°
2026-04-25 04:51 33.39778 -112.24920 7573 ft 273 kts 278°
2026-04-25 04:51 33.40126 -112.27167 8226 ft 276 kts 278°
2026-04-25 04:51 33.40473 -112.29444 8861 ft 280 kts 278°
2026-04-25 04:52 33.40822 -112.31745 9506 ft 283 kts 278°
2026-04-25 04:52 33.41171 -112.34076 10109 ft 286 kts 277°
2026-04-25 04:52 33.41526 -112.36503 10274 ft 307 kts 278°
2026-04-25 04:52 33.41904 -112.39064 10396 ft 326 kts 278°
2026-04-25 04:53 33.42309 -112.41775 10786 ft 334 kts 278°
2026-04-25 04:53 33.42720 -112.44527 11370 ft 336 kts 278°
2026-04-25 04:53 33.43130 -112.47285 12024 ft 337 kts 278°
2026-04-25 04:53 33.43539 -112.50042 12669 ft 337 kts 278°
2026-04-25 04:54 33.43949 -112.52811 13389 ft 338 kts 278°
2026-04-25 04:54 33.44357 -112.55581 13987 ft 338 kts 277°
2026-04-25 04:54 33.44765 -112.58359 14548 ft 340 kts 277°
2026-04-25 04:54 33.45038 -112.61161 15086 ft 339 kts 269°
2026-04-25 04:55 33.45069 -112.63990 15641 ft 340 kts 269°
2026-04-25 04:55 33.45100 -112.66823 16186 ft 341 kts 269°
2026-04-25 04:55 33.45132 -112.69666 16729 ft 342 kts 269°
2026-04-25 04:55 33.45156 -112.71594 17092 ft 343 kts 269°
2026-04-25 04:56 33.45194 -112.74456 17621 ft 344 kts 269°
2026-04-25 04:56 33.45236 -112.77323 18141 ft 346 kts 270°
2026-04-25 04:56 33.45523 -112.80193 18575 ft 350 kts 280°
2026-04-25 04:56 33.46301 -112.82975 19012 ft 354 kts 289°
2026-04-25 04:57 33.47264 -112.85694 19441 ft 355 kts 289°
2026-04-25 04:57 33.48227 -112.88423 19863 ft 357 kts 289°
2026-04-25 04:57 33.49193 -112.91170 20272 ft 358 kts 289°
2026-04-25 04:57 33.50161 -112.93924 20678 ft 359 kts 289°
2026-04-25 04:58 33.51131 -112.96686 21088 ft 361 kts 289°
2026-04-25 04:58 33.52104 -112.99468 21492 ft 362 kts 289°
2026-04-25 04:58 33.53077 -113.02255 21900 ft 364 kts 288°
2026-04-25 04:58 33.54052 -113.05057 22309 ft 364 kts 288°
2026-04-25 04:59 33.55026 -113.07862 22709 ft 365 kts 289°
2026-04-25 04:59 33.56003 -113.10676 23076 ft 367 kts 288°
2026-04-25 04:59 33.56986 -113.13508 23425 ft 369 kts 288°
2026-04-25 04:59 33.57974 -113.16353 23737 ft 371 kts 288°
2026-04-25 05:00 33.58969 -113.19211 24070 ft 372 kts 289°
2026-04-25 05:00 33.60292 -113.23002 24499 ft 373 kts 288°
2026-04-25 05:00 33.60969 -113.24947 24728 ft 374 kts 288°
2026-04-25 05:00 33.61970 -113.27836 25052 ft 375 kts 288°
2026-04-25 05:01 33.62970 -113.30733 25373 ft 376 kts 288°
2026-04-25 05:01 33.63970 -113.33637 25688 ft 378 kts 288°
2026-04-25 05:01 33.64963 -113.36518 26000 ft 379 kts 288°
2026-04-25 05:01 33.65984 -113.39484 26318 ft 380 kts 288°
2026-04-25 05:02 33.66997 -113.42420 26625 ft 381 kts 288°
2026-04-25 05:02 33.68011 -113.45363 27019 ft 383 kts 288°
2026-04-25 05:02 33.69030 -113.48321 27317 ft 384 kts 288°
2026-04-25 05:02 33.70052 -113.51284 27611 ft 385 kts 288°
2026-04-25 05:03 33.71066 -113.54229 27905 ft 387 kts 288°
2026-04-25 05:03 33.72092 -113.57216 28203 ft 388 kts 288°
2026-04-25 05:03 33.73120 -113.60218 28488 ft 389 kts 288°
2026-04-25 05:03 33.74151 -113.63229 28765 ft 390 kts 288°
2026-04-25 05:04 33.75185 -113.66248 28946 ft 392 kts 288°
2026-04-25 05:04 33.76237 -113.69318 29238 ft 393 kts 288°
2026-04-25 05:04 33.77264 -113.72320 29505 ft 394 kts 288°
2026-04-25 05:04 33.78306 -113.75369 29749 ft 395 kts 288°
2026-04-25 05:05 33.79350 -113.78428 29985 ft 396 kts 288°
2026-04-25 05:05 33.80395 -113.81496 30205 ft 396 kts 288°
2026-04-25 05:05 33.81436 -113.84562 30425 ft 396 kts 288°
2026-04-25 05:05 33.82478 -113.87632 30680 ft 395 kts 288°
2026-04-25 05:06 33.83513 -113.90679 31029 ft 392 kts 287°
2026-04-25 05:06 33.84543 -113.93709 31366 ft 389 kts 287°
2026-04-25 05:06 33.85561 -113.96710 31703 ft 386 kts 287°
2026-04-25 05:06 33.86571 -113.99694 32027 ft 383 kts 287°
2026-04-25 05:07 33.87574 -114.02651 32351 ft 380 kts 287°
2026-04-25 05:07 33.88566 -114.05586 32666 ft 377 kts 287°
2026-04-25 05:07 33.89548 -114.08497 32926 ft 375 kts 286°
2026-04-25 05:07 33.90465 -114.11419 33164 ft 370 kts 281°
2026-04-25 05:08 33.91036 -114.14412 33460 ft 365 kts 278°
2026-04-25 05:08 33.91541 -114.17393 33764 ft 363 kts 278°
2026-04-25 05:08 33.92045 -114.20360 34015 ft 360 kts 278°
2026-04-25 05:08 33.92547 -114.23308 34228 ft 359 kts 277°
2026-04-25 05:09 33.93047 -114.26253 34421 ft 358 kts 277°
2026-04-25 05:09 33.93545 -114.29188 34610 ft 358 kts 277°
2026-04-25 05:09 33.94042 -114.32124 34818 ft 357 kts 277°
2026-04-25 05:09 33.94538 -114.35057 34992 ft 357 kts 277°
2026-04-25 05:10 33.95032 -114.37982 35196 ft 356 kts 277°
2026-04-25 05:10 33.95522 -114.40901 35371 ft 356 kts 277°
2026-04-25 05:10 33.96010 -114.43823 35543 ft 356 kts 277°
2026-04-25 05:10 33.96498 -114.46738 35728 ft 355 kts 277°
2026-04-25 05:11 33.96987 -114.49645 35734 ft 353 kts 277°
2026-04-25 05:11 33.97958 -114.55420 35730 ft 351 kts 277°
2026-04-25 05:12 33.99397 -114.64081 35724 ft 351 kts 277°
2026-04-25 05:12 34.00358 -114.69850 35730 ft 351 kts 277°
2026-04-25 05:13 34.01312 -114.75623 35731 ft 351 kts 277°
2026-04-25 05:13 34.02265 -114.81409 35743 ft 352 kts 277°
2026-04-25 05:14 34.03209 -114.87158 35740 ft 352 kts 277°
2026-04-25 05:15 34.04637 -114.95844 35747 ft 352 kts 277°
2026-04-25 05:15 34.05586 -115.01683 35754 ft 353 kts 277°
2026-04-25 05:16 34.06522 -115.07447 35758 ft 353 kts 277°
2026-04-25 05:16 34.07468 -115.13240 35745 ft 350 kts 277°
2026-04-25 05:17 34.08406 -115.19005 35744 ft 350 kts 277°
2026-04-25 05:17 34.09337 -115.24777 35742 ft 351 kts 277°
2026-04-25 05:18 34.10271 -115.30561 35743 ft 351 kts 277°
2026-04-25 05:18 34.11199 -115.36342 35733 ft 351 kts 277°
2026-04-25 05:19 34.12122 -115.42138 35739 ft 352 kts 277°
2026-04-25 05:19 34.13050 -115.47935 35742 ft 352 kts 277°
2026-04-25 05:20 34.13974 -115.53739 35752 ft 352 kts 277°
2026-04-25 05:20 34.14899 -115.59543 35736 ft 350 kts 277°
2026-04-25 05:21 34.15814 -115.65338 35753 ft 352 kts 276°
2026-04-25 05:21 34.16167 -115.71170 35753 ft 347 kts 262°
2026-04-25 05:22 34.15598 -115.76964 35786 ft 348 kts 263°
2026-04-25 05:22 34.15042 -115.82765 35809 ft 348 kts 263°
2026-04-25 05:23 34.14489 -115.88566 35836 ft 348 kts 263°
2026-04-25 05:23 34.13931 -115.94369 35862 ft 348 kts 263°
2026-04-25 05:24 34.13361 -116.00167 35889 ft 348 kts 262°
2026-04-25 05:24 34.12787 -116.05969 35904 ft 348 kts 262°
2026-04-25 05:25 34.12211 -116.11787 35537 ft 349 kts 263°
2026-04-25 05:25 34.11926 -116.14680 35090 ft 345 kts 263°
2026-04-25 05:25 34.11644 -116.17544 34560 ft 344 kts 263°
2026-04-25 05:25 34.11361 -116.20412 33977 ft 344 kts 263°
2026-04-25 05:26 34.11077 -116.23276 33308 ft 345 kts 263°
2026-04-25 05:26 34.10788 -116.26150 32580 ft 344 kts 263°
2026-04-25 05:26 34.10500 -116.29019 31964 ft 346 kts 263°
2026-04-25 05:26 34.10205 -116.31916 31477 ft 352 kts 263°
2026-04-25 05:27 34.09888 -116.34920 31119 ft 369 kts 263°
2026-04-25 05:27 34.09556 -116.38040 30699 ft 380 kts 263°
2026-04-25 05:27 34.09216 -116.41216 30275 ft 384 kts 263°
2026-04-25 05:27 34.08870 -116.44420 29840 ft 385 kts 263°
2026-04-25 05:28 34.08524 -116.47625 29373 ft 385 kts 263°
2026-04-25 05:28 34.08180 -116.50816 28958 ft 383 kts 263°
2026-04-25 05:28 34.07839 -116.53968 28610 ft 374 kts 263°
2026-04-25 05:28 34.07505 -116.57048 28083 ft 368 kts 263°
2026-04-25 05:29 34.07177 -116.60105 27703 ft 368 kts 263°
2026-04-25 05:29 34.06876 -116.63159 27312 ft 366 kts 264°
2026-04-25 05:29 34.06600 -116.66162 26906 ft 365 kts 264°
2026-04-25 05:29 34.06314 -116.69333 26482 ft 364 kts 264°
2026-04-25 05:30 34.06054 -116.72222 26098 ft 362 kts 264°
2026-04-25 05:30 34.05782 -116.75238 25713 ft 361 kts 264°
2026-04-25 05:30 34.05507 -116.78246 25311 ft 360 kts 265°
2026-04-25 05:30 34.05229 -116.81240 24910 ft 359 kts 264°
2026-04-25 05:31 34.04948 -116.84228 24505 ft 358 kts 264°
2026-04-25 05:31 34.04663 -116.87208 24123 ft 357 kts 264°
2026-04-25 05:31 34.04369 -116.90177 23690 ft 357 kts 263°
2026-04-25 05:31 34.04020 -116.93138 23093 ft 356 kts 262°
2026-04-25 05:32 34.03633 -116.96077 22559 ft 353 kts 262°
2026-04-25 05:32 34.03235 -116.98990 22039 ft 351 kts 262°
2026-04-25 05:32 34.02840 -117.01875 21543 ft 348 kts 262°
2026-04-25 05:32 34.02456 -117.04745 21028 ft 346 kts 262°
2026-04-25 05:33 34.02101 -117.07600 20510 ft 343 kts 262°
2026-04-25 05:33 34.01763 -117.10440 20010 ft 341 kts 263°
2026-04-25 05:33 34.01434 -117.13254 19523 ft 338 kts 262°
2026-04-25 05:33 34.01106 -117.16054 19023 ft 336 kts 262°
2026-04-25 05:34 34.00777 -117.18870 18593 ft 334 kts 262°
2026-04-25 05:34 34.00452 -117.21632 18075 ft 332 kts 262°
2026-04-25 05:34 34.00128 -117.24371 17589 ft 329 kts 262°
2026-04-25 05:34 33.99805 -117.27090 17091 ft 326 kts 262°
2026-04-25 05:35 33.99484 -117.29781 16607 ft 324 kts 262°
2026-04-25 05:35 33.99169 -117.32425 16128 ft 322 kts 262°
2026-04-25 05:35 33.98850 -117.35118 15652 ft 319 kts 262°
2026-04-25 05:35 33.98540 -117.37759 15182 ft 317 kts 262°
2026-04-25 05:36 33.98234 -117.40378 14714 ft 315 kts 262°
2026-04-25 05:36 33.97931 -117.42977 14271 ft 312 kts 262°
2026-04-25 05:36 33.97632 -117.45528 13953 ft 304 kts 262°
2026-04-25 05:36 33.97382 -117.48023 13684 ft 298 kts 268°
2026-04-25 05:37 33.97531 -117.50507 13422 ft 299 kts 279°
2026-04-25 05:37 33.97971 -117.52958 13166 ft 300 kts 281°
2026-04-25 05:37 33.98414 -117.55418 12747 ft 300 kts 281°
2026-04-25 05:37 33.98851 -117.57871 12293 ft 299 kts 281°
2026-04-25 05:38 33.99284 -117.60323 11839 ft 298 kts 281°
2026-04-25 05:38 33.99715 -117.62764 11369 ft 298 kts 281°
2026-04-25 05:38 34.00143 -117.65201 10918 ft 297 kts 281°
2026-04-25 05:38 34.00526 -117.67639 10461 ft 295 kts 275°
2026-04-25 05:39 34.00564 -117.69271 10231 ft 292 kts 266°
2026-04-25 05:39 34.00345 -117.71644 10089 ft 279 kts 263°
2026-04-25 05:39 34.00124 -117.73905 9960 ft 263 kts 263°
2026-04-25 05:39 33.99918 -117.76043 9754 ft 253 kts 263°
2026-04-25 05:40 33.99717 -117.78133 9462 ft 250 kts 263°
2026-04-25 05:40 33.99517 -117.80204 9154 ft 249 kts 263°
2026-04-25 05:40 33.99316 -117.82270 8839 ft 248 kts 263°
2026-04-25 05:40 33.99116 -117.84332 8528 ft 247 kts 263°
2026-04-25 05:41 33.98918 -117.86386 8215 ft 247 kts 263°
2026-04-25 05:41 33.98718 -117.88441 7905 ft 246 kts 263°
2026-04-25 05:41 33.98515 -117.90486 7594 ft 246 kts 263°
2026-04-25 05:41 33.98314 -117.92530 7285 ft 245 kts 263°
2026-04-25 05:42 33.98110 -117.94569 6978 ft 245 kts 263°
2026-04-25 05:42 33.97907 -117.96601 6671 ft 244 kts 263°
2026-04-25 05:42 33.97705 -117.98655 6425 ft 241 kts 263°
2026-04-25 05:42 33.97505 -118.00682 6208 ft 245 kts 263°
2026-04-25 05:43 33.97304 -118.02713 5899 ft 244 kts 263°
2026-04-25 05:43 33.97104 -118.04740 5576 ft 244 kts 263°
2026-04-25 05:43 33.96903 -118.06767 5234 ft 244 kts 263°
2026-04-25 05:43 33.96702 -118.08786 4911 ft 242 kts 263°
2026-04-25 05:44 33.96502 -118.10803 4598 ft 242 kts 263°
2026-04-25 05:44 33.96302 -118.12809 4281 ft 241 kts 263°
2026-04-25 05:44 33.96102 -118.14810 3955 ft 241 kts 263°
2026-04-25 05:44 33.95903 -118.16803 3651 ft 240 kts 263°
2026-04-25 05:45 33.95703 -118.18794 3331 ft 238 kts 263°
2026-04-25 05:45 33.95507 -118.20754 3017 ft 232 kts 262°
2026-04-25 05:45 33.95318 -118.22634 2714 ft 219 kts 262°
2026-04-25 05:45 33.95142 -118.24392 2438 ft 204 kts 262°
2026-04-25 05:46 33.94977 -118.26030 2170 ft 192 kts 262°
2026-04-25 05:46 33.94817 -118.27608 1914 ft 188 kts 261°
2026-04-25 05:46 33.94668 -118.29094 1669 ft 169 kts 261°
2026-04-25 05:46 33.94532 -118.30437 1449 ft 156 kts 261°
2026-04-25 05:47 33.94403 -118.31703 1244 ft 150 kts 261°
2026-04-25 05:47 33.94278 -118.32939 1040 ft 148 kts 262°
2026-04-25 05:47 33.94154 -118.34158 837 ft 145 kts 261°
2026-04-25 05:47 33.94032 -118.35358 641 ft 144 kts 261°
2026-04-25 05:48 33.93906 -118.36550 432 ft 143 kts 261°
2026-04-25 05:48 33.93790 -118.37728 237 ft 141 kts 261°
2026-04-25 05:48 33.93673 -118.38890 97 ft 134 kts 261°
2026-04-25 05:48 33.93573 -118.39832 96 ft 89 kts 263°
2026-04-25 05:49 33.93518 -118.40374 94 ft 47 kts 263°
2026-04-25 05:49 33.93482 -118.40683 94 ft 21 kts 248°
2026-04-25 05:49 33.93390 -118.40696 95 ft 14 kts 137°
2026-04-25 05:49 33.93377 -118.40590 95 ft 14 kts 86°
2026-04-25 05:50 33.93388 -118.40470 96 ft 15 kts 83°
2026-04-25 05:50 33.93403 -118.40338 93 ft 16 kts 82°
2026-04-25 05:50 33.93418 -118.40200 93 ft 17 kts 83°
2026-04-25 05:50 33.93433 -118.40054 96 ft 18 kts 83°
2026-04-25 05:51 33.93448 -118.39900 93 ft 19 kts 83°
2026-04-25 05:51 33.93465 -118.39737 97 ft 20 kts 83°
2026-04-25 05:51 33.93481 -118.39566 95 ft 21 kts 83°
2026-04-25 05:51 33.93500 -118.39390 93 ft 22 kts 83°
2026-04-25 05:52 33.93519 -118.39203 93 ft 23 kts 83°
2026-04-25 05:52 33.93539 -118.39013 95 ft 23 kts 83°
2026-04-25 05:52 33.93557 -118.38823 93 ft 22 kts 83°
2026-04-25 05:52 33.93572 -118.38680 94 ft 15 kts 83°
2026-04-25 05:53 33.93584 -118.38571 94 ft 12 kts 82°
2026-04-25 05:53 33.93576 -118.38502 94 ft 6 kts 155°
2026-04-25 05:53 33.93530 -118.38508 93 ft 8 kts 190°
2026-04-25 05:53 33.93471 -118.38514 96 ft 9 kts 179°
2026-04-25 05:54 33.93444 -118.38534 94 ft 4 kts 246°
2026-04-25 05:54 33.93442 -118.38558 93 ft 0 kts 269°
2026-04-25 05:54 33.93442 -118.38571 95 ft 2 kts 269°
2026-04-25 05:55 33.93442 -118.38585 94 ft 0 kts 269°
2026-04-25 05:55 33.93442 -118.38587 93 ft 1 kts 269°
2026-04-25 05:55 33.93442 -118.38593 94 ft 0 kts 270°